Location: Unspecified
(38.0989°N, 0.6729°W)
Time: 22:26:18
(UTC+01:00)

OTV 5 (USA 277) - Visible Passes

Search period start: 21 February 2018 00:00
Search period end: 03 March 2018 00:00
Orbit: 404 x 417 km, 43.0° (Epoch: 07 September)

Date Brightness Start Highest point End Pass type
(mag) Time Alt. Az. Time Alt. Az. Time Alt. Az.
21 Feb ? 05:56:22 26° SSE 05:56:38 26° SE 05:59:27 10° E visible
22 Feb ? 06:40:47 23° WSW 06:42:41 85° NNW 06:46:00 10° ENE visible
23 Feb ? 05:52:17 50° E 05:52:17 50° E 05:54:55 10° ENE visible
24 Feb ? 05:03:42 10° ENE 05:03:42 10° ENE 05:03:46 10° ENE visible
24 Feb ? 06:36:28 26° WNW 06:37:57 46° NNW 06:41:09 10° ENE visible
25 Feb ? 05:47:48 39° NE 05:47:48 39° NE 05:50:06 10° ENE visible
26 Feb ? 06:31:51 23° NW 06:33:18 34° N 06:36:22 10° ENE visible
27 Feb ? 05:43:07 30° NNE 05:43:07 30° NNE 05:45:15 10° ENE visible
28 Feb ? 06:27:08 21° NW 06:28:42 33° N 06:31:44 10° ENE visible
01 Mar ? 05:38:23 28° NNE 05:38:23 28° NNE 05:40:33 10° ENE visible
02 Mar ? 06:22:25 23° NW 06:24:04 43° NNE 06:27:14 10° E visible
